Location: Newark
(19.2833°N, 166.6000°W)
Time: 04:52:54
(UTC+00:00)

LightSail 2 - Visible Passes

Search period start: 28 January 2020 00:00
Search period end: 07 February 2020 00:00
Orbit: 704 x 719 km, 24.0° (Epoch: 27 January)

Date Brightness Start Highest point End Pass type
(mag) Time Alt. Az. Time Alt. Az. Time Alt. Az.
28 Jan 5.3 06:21:44 10° W 06:26:51 66° SSW 06:28:45 37° SE visible
29 Jan 5.2 05:23:12 10° WNW 05:28:21 85° SSW 05:33:31 10° ESE visible
29 Jan 6.7 07:09:13 10° W 07:13:20 30° SSW 07:13:20 30° SSW visible
30 Jan 6.2 06:10:25 10° W 06:15:15 42° SSW 06:19:01 16° SE visible
31 Jan 7.3 06:58:34 10° WSW 07:02:02 18° SSW 07:03:45 16° S visible
01 Feb 7.1 05:59:22 10° W 06:03:34 25° SSW 06:07:47 10° SSE visible
03 Feb 7.7 05:48:59 10° WSW 05:51:51 15° SSW 05:54:43 10° S visible
06 Feb 7.7 17:07:01 10° S 17:10:02 16° SSE 17:13:02 10° ESE visible
